| time (UTC) | temp C | wind direction | speed KPH | gust KPH | rain 1hr cm | rain 24hr cm | rain mn cm | humidity % | barometer mb |
| 20260506191528 | 18 | 233 | 1.6 | 22.5 | 0.03 | 0.05 | 0.05 | 78 | 1007.6 |
| 20260506190025 | 18 | 108 | 1.6 | 16.1 | 0.00 | 0.03 | 0.03 | 79 | 1007.5 |
| 20260506184526 | 18 | 268 | 0.0 | 12.9 | 0.00 | 0.03 | 0.03 | 80 | 1007.7 |
| 20260506183023 | 18 | 94 | 1.6 | 9.7 | 0.00 | 0.03 | 0.03 | 80 | 1007.9 |
| 20260506181522 | 18 | 80 | 0.0 | 12.9 | 0.00 | 0.03 | 0.03 | 78 | 1007.9 |
| 20260506180021 | 18 | 248 | 0.0 | 16.1 | 0.00 | 0.03 | 0.03 | 76 | 1007.9 |
| 20260506174520 | 18 | 67 | 3.2 | 16.1 | 0.00 | 0.03 | 0.03 | 76 | 1008.0 |
| 20260506173019 | 18 | 115 | 3.2 | 14.5 | 0.00 | 0.03 | 0.03 | 77 | 1008.1 |
| 20260506171520 | 18 | 46 | 0.0 | 4.8 | 0.03 | 0.03 | 0.03 | 78 | 1008.3 |
| 20260506170017 | 19 | 239 | 0.0 | 6.4 | 0.03 | 0.03 | 0.03 | 78 | 1008.4 |
| 20260506164515 | 19 | 148 | 0.0 | 9.7 | 0.03 | 0.03 | 0.03 | 80 | 1008.3 |
| 20260506163013 | 19 | 266 | 0.0 | 9.7 | 0.03 | 0.03 | 0.03 | 76 | 1008.7 |
| 20260506161511 | 19 | 242 | 1.6 | 8.0 | 0.00 | 0.00 | 0.00 | 76 | 1009.2 |
| 20260506160011 | 19 | 225 | 0.0 | 8.0 | 0.00 | 0.00 | 0.00 | 73 | 1009.5 |
| 20260506154508 | 19 | 311 | 1.6 | 9.7 | 0.00 | 0.00 | 0.00 | 71 | 1009.6 |
| 20260506153010 | 20 | 252 | 0.0 | 11.3 | 0.00 | 0.00 | 0.00 | 69 | 1009.4 |
| 20260506151506 | 20 | 88 | 0.0 | 14.5 | 0.00 | 0.00 | 0.00 | 66 | 1009.5 |
| 20260506150007 | 20 | 261 | 0.0 | 14.5 | 0.00 | 0.00 | 0.00 | 64 | 1009.6 |
| 20260506144518 | 20 | 271 | 1.6 | 14.5 | 0.00 | 0.00 | 0.00 | 65 | 1009.6 |
| 20260506143004 | 20 | 74 | 0.0 | 8.0 | 0.00 | 0.00 | 0.00 | 64 | 1009.7 |
| 20260506141503 | 20 | 130 | 1.6 | 9.7 | 0.00 | 0.00 | 0.00 | 64 | 1009.5 |
| 20260506140003 | 20 | 260 | 0.0 | 8.0 | 0.00 | 0.00 | 0.00 | 66 | 1009.6 |
| 20260506134559 | 20 | 98 | 1.6 | 11.3 | 0.00 | 0.00 | 0.00 | 67 | 1009.4 |
| 20260506133134 | 20 | 286 | 3.2 | 12.9 | 0.00 | 0.00 | 0.00 | 67 | 1009.4 |
| 20260506131558 | 20 | 89 | 1.6 | 8.0 | 0.00 | 0.00 | 0.00 | 67 | 1009.6 |
| 20260506130138 | 20 | 149 | 3.2 | 16.1 | 0.00 | 0.00 | 0.00 | 67 | 1009.7 |
| 20260506124556 | 20 | 86 | 1.6 | 11.3 | 0.00 | 0.00 | 0.00 | 68 | 1009.6 |
| 20260506123054 | 19 | 271 | 4.8 | 12.9 | 0.00 | 0.00 | 0.00 | 69 | 1009.6 |
| 20260506121556 | 18 | 243 | 0.0 | 9.7 | 0.00 | 0.00 | 0.00 | 71 | 1009.6 |
| 20260506120057 | 18 | 129 | 1.6 | 12.9 | 0.00 | 0.00 | 0.00 | 73 | 1009.7 |
| 20260506114552 | 18 | 347 | 0.0 | 8.0 | 0.00 | 0.00 | 0.00 | 73 | 1009.7 |
| 20260506113053 | 17 | 80 | 1.6 | 11.3 | 0.00 | 0.00 | 0.00 | 73 | 1009.8 |
| 20260506111551 | 17 | 84 | 0.0 | 12.9 | 0.00 | 0.00 | 0.00 | 74 | 1009.7 |
| 20260506110050 | 17 | 286 | 1.6 | 11.3 | 0.00 | 0.00 | 0.00 | 75 | 1009.8 |
| 20260506104558 | 17 | 109 | 0.0 | 6.4 | 0.00 | 0.00 | 0.00 | 77 | 1009.7 |
| 20260506103048 | 17 | 95 | 0.0 | 8.0 | 0.00 | 0.00 | 0.00 | 77 | 1009.7 |
| 20260506101548 | 17 | 104 | 0.0 | 9.7 | 0.00 | 0.00 | 0.00 | 78 | 1009.8 |
| 20260506094548 | 17 | 276 | 0.0 | 4.8 | 0.00 | 0.00 | 0.00 | 78 | 1009.6 |
| 20260506093046 | 17 | 82 | 0.0 | 12.9 | 0.00 | 0.00 | 0.00 | 77 | 1009.5 |
| 20260506091542 | 17 | 307 | 0.0 | 6.4 | 0.00 | 0.00 | 0.00 | 77 | 1009.5 |
| 20260506090042 | 17 | 117 | 0.0 | 4.8 | 0.00 | 0.00 | 0.00 | 77 | 1009.7 |
| 20260506084541 | 17 | 113 | 0.0 | 14.5 | 0.00 | 0.00 | 0.00 | 76 | 1009.8 |
| 20260506083039 | 17 | 103 | 0.0 | 8.0 | 0.00 | 0.00 | 0.00 | 76 | 1009.8 |
| 20260506081541 | 17 | 254 | 0.0 | 6.4 | 0.00 | 0.00 | 0.00 | 76 | 1009.9 |
| 20260506073034 | 18 | 226 | 1.6 | 9.7 | 0.00 | 0.00 | 0.00 | 76 | 1009.8 |
| 20260506071531 | 18 | 39 | 0.0 | 8.0 | 0.00 | 0.00 | 0.00 | 76 | 1009.9 |
| 20260506061526 | 18 | 261 | 0.0 | 8.0 | 0.00 | 0.00 | 0.00 | 74 | 1010.2 |
| 20260506044517 | 19 | 253 | 0.0 | 11.3 | 0.00 | 0.00 | 0.00 | 70 | 1010.6 |
| 20260506043015 | 19 | 315 | 0.0 | 6.4 | 0.00 | 0.00 | 0.00 | 69 | 1010.5 |
| 20260506041513 | 20 | 259 | 0.0 | 12.9 | 0.00 | 0.00 | 0.00 | 68 | 1010.6 |
| 20260506040011 | 20 | 242 | 0.0 | 9.7 | 0.00 | 0.00 | 0.00 | 67 | 1010.4 |
| 20260506034510 | 20 | 227 | 0.0 | 6.4 | 0.00 | 0.00 | 0.00 | 66 | 1010.5 |
| 20260506033013 | 20 | 244 | 0.0 | 6.4 | 0.00 | 0.00 | 0.00 | 65 | 1010.4 |
| 20260506031513 | 20 | 82 | 0.0 | 12.9 | 0.00 | 0.00 | 0.00 | 64 | 1010.5 |
| 20260506030009 | 20 | 245 | 1.6 | 9.7 | 0.00 | 0.00 | 0.00 | 63 | 1010.5 |
| 20260506024507 | 20 | 56 | 0.0 | 9.7 | 0.00 | 0.00 | 0.00 | 62 | 1010.5 |
| 20260506023006 | 21 | 197 | 1.6 | 6.4 | 0.00 | 0.00 | 0.00 | 60 | 1010.5 |
| 20260506021505 | 21 | 89 | 1.6 | 11.3 | 0.00 | 0.00 | 0.00 | 59 | 1010.6 |
| 20260506020004 | 21 | 319 | 0.0 | 14.5 | 0.00 | 0.00 | 0.00 | 58 | 1010.4 |
| 20260506014504 | 21 | 259 | 3.2 | 12.9 | 0.00 | 0.00 | 0.00 | 57 | 1010.2 |
| 20260506013002 | 21 | 174 | 1.6 | 14.5 | 0.00 | 0.00 | 0.00 | 57 | 1010.2 |
| 20260506011504 | 21 | 103 | 1.6 | 17.7 | 0.00 | 0.00 | 0.00 | 57 | 1010.2 |
| 20260506010001 | 21 | 73 | 0.0 | 17.7 | 0.00 | 0.00 | 0.00 | 56 | 1010.0 |
| 20260506004602 | 22 | 53 | 4.8 | 11.3 | 0.00 | 0.00 | 0.00 | 56 | 1010.0 |
| 20260506003126 | 22 | 59 | 1.6 | 8.0 | 0.00 | 0.00 | 0.00 | 52 | 1009.7 |
| 20260506001606 | 23 | 169 | 1.6 | 12.9 | 0.00 | 0.00 | 0.00 | 48 | 1009.5 |
| 20260506000059 | 23 | 115 | 0.0 | 9.7 | 0.00 | 0.00 | 0.00 | 45 | 1009.3 |
| 20260505234558 | 24 | 297 | 0.0 | 6.4 | 0.00 | 0.00 | 0.00 | 42 | 1009.3 |
| 20260505233111 | 25 | 215 | 0.0 | 11.3 | 0.00 | 0.00 | 0.00 | 40 | 1009.0 |
| 20260505231555 | 25 | 228 | 1.6 | 12.9 | 0.00 | 0.00 | 0.00 | 40 | 1008.9 |
| 20260505230058 | 25 | 100 | 1.6 | 12.9 | 0.00 | 0.00 | 0.00 | 39 | 1008.9 |
| 20260505224555 | 26 | 227 | 1.6 | 9.7 | 0.00 | 0.00 | 0.00 | 39 | 1008.8 |
| 20260505223053 | 26 | 232 | 3.2 | 19.3 | 0.00 | 0.00 | 0.00 | 37 | 1008.8 |
| 20260505221555 | 27 | 68 | 1.6 | 14.5 | 0.00 | 0.00 | 0.00 | 37 | 1008.6 |
| 20260505220052 | 27 | 260 | 4.8 | 14.5 | 0.00 | 0.00 | 0.00 | 34 | 1008.7 |
| 20260505214609 | 28 | 176 | 3.2 | 20.9 | 0.00 | 0.00 | 0.00 | 33 | 1008.4 |
| 20260505213050 | 28 | 63 | 3.2 | 14.5 | 0.00 | 0.00 | 0.00 | 32 | 1008.4 |
| 20260505211549 | 28 | 82 | 3.2 | 17.7 | 0.00 | 0.00 | 0.00 | 29 | 1008.4 |
| 20260505210048 | 28 | 214 | 3.2 | 22.5 | 0.00 | 0.00 | 0.00 | 28 | 1008.4 |
| 20260505204547 | 28 | 231 | 3.2 | 20.9 | 0.00 | 0.00 | 0.00 | 28 | 1008.3 |
| 20260505203048 | 28 | 45 | 4.8 | 20.9 | 0.00 | 0.00 | 0.00 | 30 | 1008.3 |
| 20260505201551 | 29 | 140 | 3.2 | 16.1 | 0.00 | 0.00 | 0.00 | 30 | 1008.1 |
| 20260505200044 | 29 | 217 | 3.2 | 16.1 | 0.00 | 0.00 | 0.00 | 31 | 1008.3 |
| 20260505194542 | 29 | 262 | 4.8 | 19.3 | 0.00 | 0.00 | 0.00 | 33 | 1008.3 |
| 20260505193041 | 29 | 216 | 3.2 | 14.5 | 0.00 | 0.00 | 0.00 | 34 | 1008.6 |